Regional Weather Roundup
Issued by NWS Midland/Odessa, TX

Skip options and go directly to product.
Home | Oldest Version | Previous Version | Current Version | All | Text Only | Save Text | Print | Product List | Glossary Off

Skip product version selection by date and time.   

296
ASUS44 KMAF 241410
RWRMAF
MIDLAND AREA WEATHER ROUNDUP
NATIONAL WEATHER SERVICE MIDLAND TX
900 AM CDT THU APR 24 2014

...IN SOUTHWEST TEXAS AND SOUTHEAST NEW MEXICO...

CITY           SKY/WX    TMP DP  RH WIND       PRES   REMARKS
ALPINE         SUNNY     68  21  17 CALM      30.12R
ANDREWS        FAIR      63  17  17 N25G35    30.00R
ARTESIA        SUNNY     63  14  15 N23G32    30.04R
BIG SPRING     MOSUNNY   65  26  22 NW13      29.98R
CARLSBAD       SUNNY     63  16  16 NW16      30.02R
DRYDEN           N/A     78  43  28 NW7       29.92R
FORT STOCKTON  SUNNY     70  25  18 NW9       30.00R
GUAD PASS      SUNNY     59  15  18 S5        30.11R
HOBBS          SUNNY     61  14  16 NW26G36   30.04R
MARFA          SUNNY     66  19  16 CALM      30.11R
MIDLAND AIRPK  SUNNY     67  22  18 NW16G22   29.98R
MIDLAND INTL   SUNNY     67  25  20 NW14      29.97R
ODESSA           N/A    N/A N/A N/A MISG      29.98R
PECOS          SUNNY     65  28  24 NW14      30.00R
PRESIDIO       FAIR      74  20  13 SW5       30.00R
SEMINOLE       CLOUDY    57  30  36 N21G28    30.04R HAZE
SNYDER         CLOUDY    63  31  29 NW22G32   29.93R HAZE
WINK           SUNNY     66  20  17 N12       29.97R
$$
...OTHER STATIONS IN TEXAS...

CITY           SKY/WX    TMP DP  RH WIND       PRES   REMARKS
ABILENE        SUNNY     75  43  31 NW16      29.84R
AMARILLO       MOSUNNY   51  39  63 N17       30.00R
AUSTIN         CLOUDY    69  65  86 SW10      29.86R
BROWNSVILLE    PTSUNNY   77  70  79 S21G28    29.81R
CORPUS CHRISTI PTSUNNY   76  68  76 SE12      29.84R
DALLAS FTW     PTSUNNY   70  61  73 S23G29    29.76F
DEL RIO          N/A     70  62  76 MISG      29.86R
EL PASO        MOSUNNY   61  16  17 E5        30.06R
HOUSTON INT    MOSUNNY   73  65  75 S15       29.88S
LUBBOCK        MOSUNNY   54  34  46 N25G37    29.99R BLWGDUST
SAN ANGELO     SUNNY     73  59  61 W13       29.87R
SAN ANTONIO    CLOUDY    70  64  81 S14       29.87R
WACO           CLOUDY    67  63  87 S12       29.85R
WICHITA FALLS  NOT AVBL
$$
...OTHER LOCATIONS IN NEW MEXICO...

CITY           SKY/WX    TMP DP  RH WIND       PRES   REMARKS
ALAMAGORDO     SUNNY     63  12  14 N10G16    30.07R
ALBUQUERQUE    MOSUNNY   49  12  22 N8        30.14R
CANNON AFB     SUNNY     50  34  53 N21G31    30.05R HAZE
CLOVIS         SUNNY     52  34  50 N24       30.09R
HOLLOMAN AFB   SUNNY     53  14  21 N8        30.06R
ROSWELL        PTSUNNY   57  28  33 N22       30.07R BLWGDUST
RUIDOSO        SUNNY     48  10  21 NW8       30.19R
SANTA FE       SUNNY     44   9  23 N14       30.13R WCI  37
TRUTH OR CONSE SUNNY     55  13  18 N6        30.10R
TUCUMCARI      SUNNY     53  35  50 N13       30.06R
$$

USA.gov is the U.S. government's official web portal to all federal, state and local government web resources and services.